Вернуться в каталог

SL-14 DEB *

LostPO
NORAD 35519·DEBRIS·🇷🇺 Russia

Запущен Aug 18, 1987 с Plesetsk Cosmodrome

Loading…

Ближайшие Пролёты (ближайшие 24 часа)

TLE

УстаревшееSource: Space-Track

Эпоха: Sep 19, 2024, 05:14 UTC

1 35519U 87068CN  24263.21861086  .00027799  00000-0  60697-2 0  9995
2 35519  82.8294 230.3998 0011754 196.9184 163.1627 14.57645079673031

Отслеживайте SL-14 DEB * в реальном времени с AllMySat

Download on the App Store